Regional Weather Roundup
Issued by NWS State College, PA

Home | Current Version | Previous Version | Graphics & Text | Print | Product List | Glossary Off
Versions: 1 2 3 4 5 6 7 8 9 10 11 12 13 14 15 16 17 18 19 20 21 22 23 24 25 26 27 28 29 30 31 32 33 34 35 36 37 38 39 40 41 42 43 44 45 46 47 48 49 50

000
ASUS41 KCTP 291210
RWRCTP

REGIONAL WEATHER ROUNDUP
NATIONAL WEATHER SERVICE STATE COLLEGE PA
800 AM EDT FRI MAY 29 2015

Note: "fair" indicates few or no clouds below 12,000 feet with no
significant weather and/or obstructions to visibility.

* = STATION THAT DOES NOT REPORT PRECIPITATION /E.G. RAIN...SNOW...ETC/
    THUNDER OR FOG.

PAZ002>004-007>009-013>016-020>023-029>032-291300-
WESTERN PENNSYLVANIA

CITY           SKY/WX    TMP DP  RH WIND       PRES   REMARKS
ERIE           SUNNY     67  53  61 S15G24    30.21S
MEADVILLE      SUNNY     64  52  64 VRB5      30.25R
FRANKLIN*      SUNNY     61  52  72 E9        30.27F
NEW CASTLE     FAIR      63  61  93 CALM      30.24S
BEAVER COUNTY  SUNNY     64  54  68 E5        30.23F
BUTLER*        SUNNY     64  54  68 E8        30.26S
PITTSBURGH INT PTSUNNY   66  56  70 E5        30.23R
PITTSBURGH     MOSUNNY   66  51  58 SE5       30.23S
INDIANA*       SUNNY     66  54  63 E5        30.30S
LATROBE        SUNNY     72  55  56 S6        30.26S
WASHINGTON CO* SUNNY     61  59  94 CALM      30.25S
$$

PAZ004>006-010>012-017>019-024>028-033>037-041-042-045-046-049>053-291300-
CENTRAL PENNSYLVANIA

CITY           SKY/WX    TMP DP  RH WIND       PRES   REMARKS
BRADFORD       SUNNY     59  52  77 SE6       30.31S
DUBOIS         SUNNY     64  53  67 E8        30.29S
CLEARFIELD     SUNNY     59  53  80 NE3       30.31F
JOHNSTOWN      SUNNY     65  51  60 E3        30.31R
ALTOONA        SUNNY     63  54  72 CALM      30.32R
STATE COLLEGE  SUNNY     59  54  82 CALM      30.32S
WILLIAMSPORT   SUNNY     60  54  80 CALM      30.31S
SELINSGROVE    SUNNY     63  56  78 CALM      30.32S
FT INDIANTOWN  SUNNY     66  56  71 E5        30.31R
CAPITAL CITY   SUNNY     67  54  63 E8        30.30S
HARRISBURG     SUNNY     68  55  63 E3        30.30R
YORK           SUNNY     67  58  72 E5        30.30R
$$

PAZ038>040-043-044-047-048-054-055-060>062-067>071-291300-
EASTERN PENNSYLVANIA

CITY           SKY/WX    TMP DP  RH WIND       PRES   REMARKS
SCRANTON       SUNNY     63  53  70 NE3       30.33R
MOUNT POCONO   SUNNY     63  50  62 E9        30.34R
ALLENTOWN      SUNNY     66  54  65 E6        30.32R
QUAKERTOWN*    SUNNY     66  55  68 NE5       30.32R
READING        SUNNY     67  55  65 N3        30.30R
LANCASTER      SUNNY     68  55  63 E8        30.31R
COATESVILLE    SUNNY     66  55  68 E8G20     30.32R
POTTSTOWN      SUNNY     67  56  67 NE5       30.32R
BLUE BELL      SUNNY     68  57  68 E5        30.29S
DOYLESTOWN     SUNNY     67  54  63 VRB6      30.30R
WILLOW GROVE   NOT AVBL
NORTH PHILA    SUNNY     71  54  54 NE9       30.30S
PHILADELPHIA   MOSUNNY   72  55  55 NE8       30.29R
$$


USA.gov is the U.S. government's official web portal to all federal, state and local government web resources and services.